Flag for Switzerland Weather past 2 weeks in Aarau, Aargau, Switzerland

Now
56 °F

Cool.


Feels Like: 56 °F
Forecast: 46 / 68 °F
Wind: 2 mph from Northeast

Location: Wynau

Current Time: Oct 2, 2014 at 9:23:40 AM

Latest Report: Oct 2, 2014 at 8:00 AM


Visibility: N/A

Pressure: 30.35 "Hg

Humidity: 96%

Dew point: 55 °F

Location of AarauLocation

Historic Weather in Aarau — Graph

°F

Aarau temperature yesterday

Maximum temperature yesterday: 70 °F (at 4:00 PM)
Minimum temperature yesterday: 56 °F (at 11:00 PM)
Average temperature yesterday: 61 °F

Past Weeks' High & Low Weather Summary

 TemperatureHumidityPressure
High77 °F (Sep 20, 3:00 PM)100% (Sep 17, 7:00 AM)30.36 "Hg (Sep 17, 7:00 AM)
Low40 °F (Sep 24, 7:00 AM)44% (Sep 23, 2:00 PM)29.80 "Hg (Sep 17, 6:00 PM)
Average58 °F86%30.14 "Hg
* Reported Sep 17 7:00 AM — Oct 2 7:00 AM, Aarau, Weather by CustomWeather, © 2014

Note: Actual official high and low records may vary slightly from our data, if they occured in-between our weather recording intervals... More about our weather records

Advertising

Aarau weather history for previous 24 hours

 ConditionsComfort  
Time TempWeatherWind HumidityBarometerVisibility
7:00 AM
Oct 2
54 °FCool.2 mph100%30.34 "HgN/A
6:00 AM54 °FCool.2 mph100%30.34 "HgN/A
5:00 AM56 °FCool.3 mph97%30.34 "HgN/A
4:00 AM56 °FCool.2 mph96%30.34 "HgN/A
3:00 AM53 °FCool.2 mph100%30.36 "HgN/A
2:00 AM54 °FCool.1 mph100%30.35 "HgN/A
1:00 AM54 °FCool.1 mph100%30.35 "HgN/A
12:00 AM56 °FCool.1 mph99%30.35 "HgN/A
11:00 PM
Oct 1
56 °FCool.1 mph99%30.35 "HgN/A
10:00 PM57 °FCool.No wind98%30.34 "HgN/A
9:00 PM60 °FCool.1 mph95%30.32 "HgN/A
8:00 PM62 °FCool.1 mph90%30.30 "HgN/A
7:00 PM64 °FMild.3 mph80%30.29 "HgN/A
6:00 PM68 °FMild.3 mph70%30.26 "HgN/A
5:00 PM69 °FMild.2 mph60%30.25 "HgN/A
4:00 PM70 °FMild.7 mph66%30.25 "HgN/A
3:00 PM69 °FMild.3 mph66%30.27 "HgN/A
2:00 PM66 °FMild.3 mph74%30.29 "HgN/A
1:00 PM67 °FMild.5 mph76%30.30 "HgN/A
12:00 PM64 °FMild.1 mph88%30.31 "HgN/A
11:00 AM62 °FCool.1 mph94%30.31 "HgN/A
10:00 AM60 °FCool.1 mph96%30.31 "HgN/A
9:00 AM59 °FCool.1 mph98%30.31 "HgN/A
Weather by CustomWeather, © 2014

See weather overviewHow to use our weather pages